Location: Endfield
(51.6667°N, 0.0667°W)
Time: 08:05:52
(UTC+00:00)

ATLAS 3B R/B - Visible Passes

Search period start: 16 December 2025 00:00
Search period end: 26 December 2025 00:00
Orbit: 935 x 1258 km, 63.8° (Epoch: 15 December)

Date Brightness Start Highest point End Pass type
(mag) Time Alt. Az. Time Alt. Az. Time Alt. Az.
16 Dec 5.5 01:26:21 11° NE 01:26:21 11° NE 01:26:39 10° NE visible
16 Dec 4.2 03:13:36 34° NNE 03:13:36 34° NNE 03:19:20 10° ENE visible
16 Dec 3.2 05:00:51 35° NNW 05:04:25 66° NE 05:11:59 10° ESE visible
16 Dec 3.4 06:48:06 12° NW 06:55:02 45° WSW 07:02:00 10° S visible
17 Dec 4.8 02:27:50 23° NE 02:27:50 23° NE 02:31:06 10° ENE visible
17 Dec 3.5 04:15:05 46° N 04:16:36 52° NNE 04:24:02 10° ESE visible
17 Dec 3.0 06:02:20 21° NW 06:07:44 64° SW 06:15:06 10° SSE visible
18 Dec 5.4 01:42:06 13° NE 01:42:06 13° NE 01:42:57 10° ENE visible
18 Dec 3.9 03:29:22 42° NE 03:29:22 42° NE 03:35:55 10° E visible
18 Dec 2.9 05:16:37 36° NW 05:20:16 87° SW 05:27:48 10° SE visible
18 Dec 4.0 07:03:57 10° WNW 07:10:09 27° WSW 07:16:06 10° SSW visible
19 Dec 4.6 02:43:41 28° ENE 02:43:41 28° ENE 02:47:42 10° E visible
19 Dec 3.1 04:30:57 56° NNW 04:32:38 71° NE 04:40:12 10° SE visible
19 Dec 3.5 06:18:13 20° WNW 06:23:05 40° WSW 06:29:52 10° S visible
20 Dec 5.2 01:58:05 15° ENE 01:58:05 15° ENE 01:59:26 10° ENE visible
20 Dec 3.5 03:45:21 55° NE 03:45:21 55° NE 03:52:20 10° ESE visible
20 Dec 3.0 05:32:37 35° WNW 05:35:49 58° WSW 05:43:06 10° SSE visible
20 Dec 4.5 07:21:07 10° WNW 07:24:59 15° WSW 07:28:46 10° SW visible
21 Dec 4.3 02:59:49 33° ENE 02:59:49 33° ENE 03:04:15 10° E visible
21 Dec 2.8 04:47:05 64° WNW 04:48:25 81° SW 04:55:55 10° SE visible
21 Dec 4.0 06:34:21 16° WNW 06:38:08 24° WSW 06:43:43 10° SSW visible
22 Dec 5.1 02:14:21 17° ENE 02:14:21 17° ENE 02:16:03 10° E visible
22 Dec 3.1 04:01:38 70° E 04:01:38 70° E 04:08:24 10° SE visible
22 Dec 3.5 05:48:54 30° W 05:51:06 36° WSW 05:57:41 10° S visible
23 Dec 4.1 03:16:16 36° E 03:16:16 36° E 03:20:36 10° ESE visible
23 Dec 3.0 05:03:32 52° WSW 05:03:55 52° WSW 05:11:04 10° SSE visible
23 Dec 4.5 06:50:49 11° W 06:52:54 12° W 06:55:45 10° WSW visible
23 Dec 4.8 18:53:00 10° SSE 18:53:49 13° SSE 18:53:49 13° SSE visible
23 Dec 5.2 20:40:48 10° SW 20:41:08 11° SW 20:41:08 11° SW visible
24 Dec 5.0 02:30:58 17° E 02:30:58 17° E 02:32:34 10° E visible
24 Dec 3.2 04:18:14 56° SSE 04:18:14 56° SSE 04:23:59 10° SSE visible
24 Dec 4.1 06:05:32 21° W 06:06:05 21° WSW 06:11:17 10° SSW visible
24 Dec 4.7 18:07:58 10° SE 18:08:48 12° SE 18:08:48 12° SE visible
24 Dec 4.4 19:53:38 10° SSW 19:56:07 23° SSW 19:56:07 23° SSW visible
25 Dec 4.2 03:33:02 32° SE 03:33:02 32° SE 03:36:34 10° SE visible
25 Dec 3.7 05:20:20 30° SW 05:20:20 30° SW 05:25:28 10° S visible
25 Dec 3.9 19:06:52 10° S 19:11:03 31° SSE 19:11:03 31° SSE visible
25 Dec 4.8 20:56:32 10° SW 20:58:21 19° WSW 20:58:21 19° WSW visible
